Find Starlink 3110

NORAD ID: 49420 Int'l Des: 2021-104 Owner: SPXS Country: US Constellation: starlink operational
LEOCIRCULAR

当前视图

正在加载3D地球...

关于 Starlink 3110

正在加载描述...

即将过境

Passes for default location (London). Set your location on the main map for personalized predictions.

高度历史

Loading altitude history...

两行轨道根数

1 49420U 21104N 26151.16977288 -.00000272 00000-0 10249-5 0 9993
2 49420 53.1931 218.8424 0001829 106.6589 253.4603 15.08842444251075
Epoch: May 31, 2026 • Age: 11 hours

当前状态

高度 543.0 km
速度 7.60 km/s
星下点 42.10°N, 138.03°E
发射日期 Nov 13, 2021
运行时间 4.5 years
类型 internet

技术详情

分类 Payload
质量 290.00 kg
干质量 270.00 kg
总质量 290.00 kg
长度 0.20 m
直径 2.80 m
跨度 9.00 m
形状 Box + pan
制造商 SPXS
平台类型 Starlink
阶段状态 In Orbit
所有者/国家 SPXS/US

Most Searched